Back to catalog

STARLINK-1417

AliveCommunicationsVLEO
NORAD 45693·PAYLOAD·🇺🇸 United States

Launched Jun 4, 2020 from Cape Canaveral Space Force Station

Loading…

Next Passes (next 24 hours)

TLE

FreshSource: CelesTrak SupGP

Epoch: Sep 14, 2026, 14:13 UTC

1 45693C 20035AN  26257.59284722  .00022906  00000+0  10140-2 0  2571
2 45693  53.0442 272.2722 0004027  82.2197 124.7313 15.21115828    19

Track STARLINK-1417 in real time with AllMySat

Download on the App Store